Date,TemperatureHighF,TemperatureAvgF,TemperatureLowF,DewpointHighF,DewpointAvgF,DewpointLowF,HumidityHigh,HumidityAvg,HumidityLow,PressureMaxIn,PressureMinIn,WindSpeedMaxMPH,WindSpeedAvgMPH,GustSpeedMaxMPH,PrecipitationSumIn
2013-7-1,96.4,77.8,63.3,66.4,62.9,58.6,86,62,36,29.98,29.89,0,-999,0,0.00
2013-7-2,93.7,77.3,63.3,64.7,60.4,52.2,87,59,29,30.06,29.97,0,-999,0,0.01
2013-7-3,89.3,72.1,61.5,59.4,51.9,42.4,77,53,21,30.11,29.99,0,-999,0,0.00
2013-7-4,81.3,66.1,54.2,54.7,51.6,49.9,86,62,36,30.13,29.99,0,-999,0,0.00
2013-7-5,80.5,65.7,52.5,54.8,51.2,48.9,88,62,35,30.06,29.91,0,-999,0,0.00
2013-7-6,81.8,66.5,53.8,58.3,54.0,50.1,88,66,41,29.95,29.83,0,-999,0,0.01
2013-7-7,85.2,68.1,55.6,56.9,54.7,51.4,93,65,32,29.96,29.85,0,-999,0,0.00
2013-7-8,84.5,68.2,55.0,57.5,53.7,50.5,90,63,30,30.06,29.96,0,-999,0,0.01
2013-7-9,93.3,74.9,59.7,60.0,57.4,54.6,86,58,28,30.06,29.94,0,-999,0,0.01
2013-7-10,87.6,70.3,56.8,57.0,53.6,50.4,86,58,30,30.05,29.89,0,-999,0,0.02
2013-7-11,79.9,64.5,52.3,51.2,48.4,45.0,84,58,29,30.06,29.92,0,-999,0,0.00
2013-7-12,81.2,64.7,52.0,49.0,47.4,45.0,82,56,28,30.07,29.96,0,-999,0,0.00
2013-7-13,84.7,66.7,52.0,50.3,45.6,41.4,78,51,22,30.13,29.99,0,-999,0,0.00
2013-7-14,89.4,71.6,55.9,52.2,50.2,45.6,81,50,23,30.06,29.92,0,-999,0,0.00
2013-7-15,88.3,71.7,56.8,52.1,48.3,42.5,65,45,27,29.98,29.76,0,-999,0,0.00
2013-7-16,87.9,73.1,63.0,57.4,53.1,48.8,72,50,30,30.00,29.75,0,-999,0,0.00
2013-7-17,82.7,69.0,60.9,55.1,53.5,50.5,78,59,35,30.14,30.00,0,-999,0,0.00
2013-7-18,87.1,68.9,54.3,58.6,54.5,51.1,90,64,30,30.18,30.03,0,-999,0,0.00
2013-7-19,87.6,69.1,54.3,58.6,55.6,51.8,91,65,36,30.12,29.96,0,-999,0,0.00
2013-7-20,84.4,67.9,54.3,60.5,56.0,52.2,94,68,41,30.06,29.90,0,-999,0,0.04
2013-7-21,86.8,69.2,53.8,58.6,55.3,51.8,92,65,34,29.96,29.85,0,-999,0,0.00
2013-7-22,87.3,70.7,56.5,57.6,54.6,48.5,90,61,26,30.02,29.90,0,-999,0,0.02
2013-7-23,93.3,75.4,61.0,59.9,57.0,48.4,85,57,22,30.01,29.89,0,-999,0,0.06
2013-7-24,93.6,76.4,62.2,57.0,53.6,44.5,75,49,19,30.01,29.92,0,-999,0,0.07
2013-7-25,93.1,76.8,63.0,54.5,51.2,40.8,72,44,16,30.05,29.95,0,-999,0,0.02
2013-7-26,92.7,74.0,58.6,53.5,49.4,45.3,69,44,23,30.11,30.01,0,-999,0,0.00
2013-7-27,85.0,67.8,54.3,50.6,47.8,42.6,80,52,26,30.16,29.98,0,-999,0,0.00
2013-7-28,79.9,64.1,49.5,53.1,50.3,46.1,88,63,38,30.05,29.92,0,-999,0,0.00
2013-7-29,82.9,65.7,53.0,53.4,51.4,49.0,88,63,32,30.01,29.91,0,-999,0,0.00
2013-7-30,85.1,67.0,51.6,57.6,53.6,49.1,91,65,33,30.12,30.01,0,-999,0,0.00
2013-7-31,83.9,67.7,56.8,59.0,55.6,53.1,89,67,38,30.10,30.00,0,-999,0,0.00